Content
SEND FEEDBACK

Daily
Averages
Monthly
Summary
United States of America

PETALUMA, CALIFORNIA


Home > North America > United States > California
Elevation: 1 foot     Latitude: 38 14N     Longitude: 122 38W

WEATHER
 
SELECT A DAY
Number of Records: 80,312;   Date Range: 4/19/11 - 12/15/14
 
SHARE

PRINT THIS DATA

[ ← Previous Day ]
WEATHER ALMANAC - MARCH 17, 2013
[ Next Day → ]
[ °C ]   °F
Weather ElementAverageHighLow
Temperature50.9 °F66.2 °F (2:15 pm)39.2 °F (6:15 am)
Dewpoint41.5 °F48.2 °F (2:35 pm)39.2 °F (5:15 am)
Humidity72.5 %100 % (6:15 am)42 % (12:55 pm)
Barometer30.12 in30.17 in (10:15 am)30.07 in (6:55 pm)
Wind Speed6 mph12.7 mph (4:15 pm)
Wind Gust18.4 mph (10:15 am)
Weather ElementAverage
Visibility10 mi
Wind DirectionSW (220.7 °)

Weather ElementTotal
Precipitation---
Heating Degree Days12.3 (Base 65)
Growing Degree Days2.7 (Base 50)
Averaged from 68 records on March 17, 2013
WEATHER CONDITIONS BREAKOUT
WIND DIRECTION BREAKOUT
WEATHER BY HOUR - MARCH 17, 2013
[ °C ]   °F
Local TimeTemperatureDewpointHumidityBarometerVisibilityWind DirectionWind SpeedGust SpeedPrecipitationEventsConditions
12:35 AM48.2 °F41.0 °F76 %30.13 in10.0 miWSW (250°)4.6 mphClear
12:55 AM48.2 °F41.0 °F76 %30.12 in10.0 miWSW (250°)8.1 mphClear
1:15 AM46.4 °F41.0 °F81 %30.13 in10.0 miWest (270°)5.8 mphClear
1:35 AM48.2 °F41.0 °F76 %30.13 in10.0 miWest (280°)8.1 mphPartly Cloudy
1:55 AM46.4 °F41.0 °F81 %30.13 in10.0 miNW (310°)5.8 mphPartly Cloudy
2:15 AM46.4 °F41.0 °F81 %30.13 in10.0 miWNW (300°)5.8 mphClear
2:35 AM44.6 °F41.0 °F87 %30.12 in10.0 miWNW (290°)9.2 mphClear
2:55 AM46.4 °F41.0 °F81 %30.12 in10.0 miWNW (290°)10.4 mphClear
3:15 AM48.2 °F41.0 °F76 %30.13 in10.0 miWest (260°)10.4 mphClear
3:35 AM46.4 °F41.0 °F81 %30.13 in10.0 miWSW (250°)9.2 mphClear
3:55 AM44.6 °F41.0 °F87 %30.12 in10.0 miWNW (290°)9.2 mphClear
4:15 AM44.6 °F41.0 °F87 %30.12 in10.0 miWest (280°)5.8 mphClear
4:35 AM44.6 °F41.0 °F87 %30.11 in10.0 miWNW (290°)8.1 mphClear
4:55 AM44.6 °F41.0 °F87 %30.12 in10.0 miWest (280°)6.9 mphClear
5:15 AM42.8 °F39.2 °F87 %30.12 in10.0 miWNW (290°)6.9 mphClear
5:35 AM41.0 °F39.2 °F93 %30.12 in10.0 miNW (320°)4.6 mphClear
5:55 AM41.0 °F39.2 °F93 %30.12 in10.0 miWest (280°)4.6 mphClear
6:15 AM39.2 °F39.2 °F100 %30.12 in10.0 miWest (270°)6.9 mphClear
6:35 AM42.8 °F41.0 °F93 %30.13 in10.0 miWSW (240°)5.8 mphClear
6:55 AM44.6 °F41.0 °F87 %30.14 in10.0 miWest (260°)6.9 mphClear
7:35 AM42.8 °F41.0 °F93 %30.14 in10.0 miWSW (240°)8.1 mphClear
7:55 AM44.6 °F41.0 °F87 %30.15 in10.0 miWest (260°)6.9 mphClear
8:15 AM44.6 °F41.0 °F87 %30.15 in10.0 miCalmClear
8:35 AM46.4 °F41.0 °F81 %30.15 in10.0 miWSW (250°)3.5 mphClear
8:55 AM48.2 °F41.0 °F76 %30.15 in10.0 miWest (280°)5.8 mphClear
9:15 AM50.0 °F41.0 °F71 %30.16 in10.0 miWNW (290°)6.9 mphClear
9:35 AM51.8 °F39.2 °F62 %30.16 in10.0 miNW (320°)9.2 mphClear
9:55 AM53.6 °F39.2 °F58 %30.16 in10.0 miNW (320°)9.2 mph16.1 mphClear
10:15 AM55.4 °F41.0 °F58 %30.17 in10.0 miWNW (300°)11.5 mph18.4 mphClear
10:35 AM55.4 °F39.2 °F54 %30.17 in10.0 miNW (310°)9.2 mphClear
10:55 AM57.2 °F39.2 °F51 %30.16 in10.0 miNW (310°)9.2 mphClear
11:15 AM57.2 °F39.2 °F51 %30.16 in10.0 miNW (310°)9.2 mphClear
11:35 AM59.0 °F41.0 °F51 %30.15 in10.0 miNW (310°)5.8 mphClear
11:55 AM59.0 °F39.2 °F48 %30.15 in10.0 miWNW (300°)5.8 mphClear
12:15 PM60.8 °F41.0 °F48 %30.14 in10.0 miNNW (330°)4.6 mphClear
12:35 PM62.6 °F41.0 °F45 %30.13 in10.0 miCalmClear
12:55 PM62.6 °F39.2 °F42 %30.13 in10.0 miCalmClear
1:35 PM64.4 °F41.0 °F42 %30.13 in10.0 miNW (310°)4.6 mphClear
1:55 PM64.4 °F41.0 °F42 %30.12 in10.0 miWest (270°)4.6 mphClear
2:15 PM66.2 °F46.4 °F49 %30.10 in10.0 miWNW (290°)10.4 mphClear
2:35 PM64.4 °F48.2 °F56 %30.10 in10.0 miWest (280°)11.5 mph16.1 mphClear
2:55 PM62.6 °F48.2 °F59 %30.09 in10.0 miNW (310°)8.1 mphClear
3:15 PM62.6 °F46.4 °F55 %30.09 in10.0 miWNW (290°)10.4 mphClear
3:35 PM62.6 °F46.4 °F55 %30.08 in10.0 miWest (270°)10.4 mphClear
3:55 PM62.6 °F44.6 °F52 %30.08 in10.0 miWest (280°)10.4 mphClear
4:15 PM62.6 °F41.0 °F45 %30.09 in10.0 miWest (270°)12.7 mphClear
4:35 PM62.6 °F44.6 °F52 %30.09 in10.0 miWest (280°)9.2 mphClear
4:55 PM60.8 °F44.6 °F55 %30.10 in10.0 miWest (260°)9.2 mphClear
5:15 PM57.2 °F44.6 °F63 %30.10 in10.0 miWest (280°)10.4 mphClear
5:35 PM55.4 °F44.6 °F67 %30.09 in10.0 miWest (280°)5.8 mphClear
5:55 PM53.6 °F42.8 °F67 %30.09 in10.0 miWSW (250°)8.1 mphClear
6:15 PM53.6 °F41.0 °F62 %30.08 in10.0 miWest (270°)5.8 mphClear
6:35 PM53.6 °F41.0 °F62 %30.08 in10.0 miWSW (240°)4.6 mphClear
6:55 PM51.8 °F41.0 °F67 %30.07 in10.0 miWest (280°)5.8 mphClear
7:15 PM50.0 °F41.0 °F71 %30.07 in10.0 miWNW (290°)5.8 mphClear
7:55 PM48.2 °F41.0 °F76 %30.07 in10.0 miNW (320°)4.6 mphScattered Clouds
8:15 PM48.2 °F41.0 °F76 %30.07 in10.0 miCalmMostly Cloudy
8:35 PM46.4 °F41.0 °F81 %30.07 in10.0 miCalmOvercast
8:55 PM46.4 °F41.0 °F81 %30.08 in10.0 miNorthOvercast
9:15 PM46.4 °F42.8 °F87 %30.09 in10.0 miNorth (10°)3.5 mphOvercast
9:35 PM46.4 °F42.8 °F87 %30.08 in10.0 miCalmOvercast
9:55 PM44.6 °F42.8 °F93 %30.09 in10.0 miCalmOvercast
10:15 PM44.6 °F42.8 °F93 %30.09 in10.0 miCalmOvercast
10:35 PM44.6 °F41.0 °F87 %30.09 in10.0 miCalmOvercast
10:55 PM42.8 °F41.0 °F93 %30.09 in10.0 miCalmOvercast
11:15 PM41.0 °F41.0 °F100 %30.09 in10.0 miCalmOvercast
11:35 PM41.0 °F41.0 °F100 %30.10 in10.0 miCalmOvercast
11:55 PM41.0 °F39.2 °F93 %30.10 in10.0 miCalmOvercast
Hourly data recorded from KO69, located miles away from Petaluma, California







STORIES FROM OUR PARTNERS